Weather History for Crestview, FL

Change the Weather History Date:

Saturday, February 16, 2013

  Actual Average Record
Temperature  
Mean Temperature 44 °F -  
Max Temperature 55 °F 68 °F 82 °F (1992)
Min Temperature 28 °F 46 °F 17 °F (1991)
Degree Days  
Heating Degree Days 20    
Moisture  
Dew Point 27 °F    
Average Humidity 52    
Maximum Humidity 78    
Minimum Humidity 22    
Precipitation  
Precipitation 0.00 in - - ()
Sea Level Pressure  
Sea Level Pressure 30.15 in    
Wind  
Wind Speed 9 mph (NW)    
Max Wind Speed 20 mph    
Max Gust Speed 33 mph    
Visibility 10 miles    
Events      
Averages and records for this station are not official NWS values.
T = Trace of Precipitation, MM = Missing Value Source: NWS Daily Summary

Daily Weather History Graph

Daily Weather History Graph

Search for Another Location

Airport:

Trip Planner

Search our weather history database for the weather conditions in past years. The results will help you decide how hot, cold, wet, or windy it might be!

Date:

Astronomy

Feb. 16, 2013 Rise Set
Actual Time 6:25 AM CST 5:35 PM CST
Civil Twilight 6:01 AM CST 5:59 PM CST
Nautical Twilight 5:32 AM CST 6:27 PM CST
Astronomical Twilight 5:04 AM CST 6:55 PM CST
Moon 10:07 AM CST (2/16) No Moon Set
Length of Visible Light 11h 58m
Length of Day
11h 09m
Waxing Crescent, 39% of the Moon is Illuminated
Feb 16
Waxing Crescent
Feb 17
First Quarter
Feb 25
Full
Mar 4
Last Quarter
Mar 11
New

Hourly Weather History & Observations

Time (CST) Temp. Windchill Dew Point Humidity Pressure Visibility Wind Dir Wind Speed Gust Speed Precip Events Conditions
12:53 AM 48.9 °F - 39.0 °F 69% 30.06 in 10.0 mi NNW 9.2 mph - N/A   Clear
1:53 AM 46.9 °F - 39.0 °F 74% 30.06 in 10.0 mi NNW 4.6 mph - N/A   Clear
2:53 AM 46.9 °F - 39.0 °F 74% 30.06 in 10.0 mi NNW 5.8 mph - N/A   Clear
3:53 AM 46.9 °F - 39.0 °F 74% 30.06 in 10.0 mi Calm Calm - N/A   Mostly Cloudy
4:53 AM 48.0 °F - 39.0 °F 71% 30.07 in 10.0 mi NW 11.5 mph - N/A   Overcast
5:53 AM 48.0 °F - 37.0 °F 66% 30.10 in 10.0 mi NW 11.5 mph - 0.00 in   Overcast
6:53 AM 46.0 °F 41.0 °F 36.0 °F 68% 30.13 in 10.0 mi NW 10.4 mph - 0.00 in   Overcast
7:53 AM 46.0 °F 43.1 °F 36.0 °F 68% 30.12 in 10.0 mi WNW 5.8 mph - 0.00 in   Mostly Cloudy
8:53 AM 50.0 °F - 34.0 °F 54% 30.14 in 10.0 mi NW 15.0 mph 24.2 mph N/A   Clear
9:53 AM 53.1 °F - 28.0 °F 38% 30.15 in 10.0 mi NW 18.4 mph 26.5 mph N/A   Partly Cloudy
10:53 AM 53.1 °F - 26.1 °F 35% 30.15 in 10.0 mi NW 17.3 mph 21.9 mph N/A   Clear
11:53 AM 54.0 °F - 26.1 °F 34% 30.13 in 10.0 mi WNW 15.0 mph 27.6 mph N/A   Scattered Clouds
12:53 PM 55.0 °F - 21.9 °F 28% 30.11 in 10.0 mi NW 13.8 mph 29.9 mph N/A   Scattered Clouds
1:53 PM 52.0 °F - 19.0 °F 27% 30.11 in 7.0 mi NW 17.3 mph 33.4 mph N/A   Scattered Clouds
2:53 PM 50.0 °F - 16.0 °F 26% 30.11 in 10.0 mi WNW 19.6 mph 29.9 mph N/A   Scattered Clouds
3:53 PM 52.0 °F - 14.0 °F 22% 30.12 in 10.0 mi NNW 17.3 mph 29.9 mph N/A   Scattered Clouds
4:53 PM 48.9 °F - 15.1 °F 26% 30.14 in 10.0 mi NNW 16.1 mph 20.7 mph N/A   Clear
5:53 PM 45.0 °F 39.7 °F 16.0 °F 31% 30.16 in 10.0 mi NNW 10.4 mph - N/A   Clear
6:53 PM 41.0 °F 38.0 °F 19.9 °F 43% 30.20 in 10.0 mi NW 4.6 mph - N/A   Clear
7:53 PM 37.9 °F - 24.1 °F 57% 30.23 in 10.0 mi Calm Calm - N/A   Clear
8:53 PM 34.0 °F 29.8 °F 26.1 °F 73% 30.26 in 10.0 mi WNW 4.6 mph - N/A   Clear
9:53 PM 36.0 °F 31.1 °F 23.0 °F 59% 30.28 in 10.0 mi NW 5.8 mph - N/A   Clear
10:53 PM 36.0 °F 31.1 °F 21.9 °F 57% 30.29 in 10.0 mi NNW 5.8 mph - N/A   Clear
11:53 PM 28.9 °F - 23.0 °F 78% 30.29 in 10.0 mi Calm Calm - N/A   Clear